Location: Unspecified
(64.9000°N, 0.0000°E)
Time: 13:38:55
(UTC+00:00)

Altair - Pass Details

Date: 16 June 2019
Orbit: 1501 x 1683 km, 47.2° (Epoch: 16 August)

Event Time Altitude Azimuth Distance (km) Brightness Sun altitude
Rises 03:32:43 0° 271° (W) 4,884 9.7 7.1°
Reaches altitude 10° 03:37:21 10° 253° (WSW) 3,919 9.1 7.5°
Maximum altitude 03:42:57 17° 218° (SW) 3,425 8.8 8.0°
Drops below altitude 10° 03:48:34 10° 184° (S) 3,944 9.3 8.4°
Sets 03:53:17 0° 166° (SSE) 4,928 9.9 8.8°
